• MPC Preparation (Info)

  • MPEC 2019-L74 : 2019 LP1

    The following Minor Planet Electronic Circular may be linked-to from your own Web pages, but must not otherwise be redistributed electronically.

    A form allowing access to any MPEC is at the bottom of this page.


    Read MPEC 2019-L73 Read MPEC 2019-L75


    M.P.E.C. 2019-L74                                Issued 2019 June 5, 15:47 UT
    
         The Minor Planet Electronic Circulars contain information on unusual
             minor planets and routine data on comets.  They are published
        on behalf of Division F of the International Astronomical Union by the
              Minor Planet Center, Smithsonian Astrophysical Observatory,
                              Cambridge, MA 02138, U.S.A.
    
                 Prepared using the Tamkin Foundation Computer Network
    
                                  MPC@CFA.HARVARD.EDU
                URL https://www.minorplanetcenter.net/    ISSN 1523-6714
    
                                       2019 LP1
    
    Observations:
         K19L01P  C2019 06 01.57163521 39 23.861+10 27 21.54         22.6 GVEL074F51
         K19L01P  C2019 06 01.58297521 39 25.266+10 27 57.88         22.8 GVEL074F51
         K19L01P  C2019 06 01.59433121 39 26.623+10 28 34.84         23.8 GVEL074F51
         K19L01P* C2019 06 02.54617 21 41 25.955+11 20 16.97         21.9 wUEL074F51
         K19L01P  C2019 06 02.55726 21 41 27.302+11 20 52.96         22.2 wUEL074F51
         K19L01P  C2019 06 02.57956 21 41 30.008+11 22 06.32         22.0 wUEL074F51
         K19L01P ^C2019 06 03.52307421 43 27.839+12 13 35.50         22.35GVEL074568
         K19L01P ^C2019 06 03.52408021 43 27.961+12 13 38.83         22.26GVEL074568
         K19L01P ^C2019 06 03.52509721 43 28.086+12 13 42.13         22.25GVEL074568
         K19L01P ^C2019 06 03.52610321 43 28.207+12 13 45.45         22.31GVEL074568
         K19L01P  C2019 06 04.43860 21 45 21.39 +13 03 43.7          22.1 GVEL074V06
         K19L01P  C2019 06 04.44416 21 45 22.04 +13 04 02.1          22.1 GVEL074V06
         K19L01P  C2019 06 04.44971 21 45 22.73 +13 04 20.3          22.0 GVEL074V06
         K19L01P  C2019 06 04.45527 21 45 23.39 +13 04 38.7          22.2 GVEL074V06
    
    Observer details:
    568 Mauna Kea.  Observers R. Wainscoat, L. Wells, T. Burdullis.  Measurers
        R. Weryk, R. Wainscoat.  3.6-m Canada-France-Hawaii Telescope + CCD.
    F51 Pan-STARRS 1, Haleakala.  Observers J. Bulger, K. Chambers, T. Lowe,
        E. Magnier, A. Schultz, M. Willman.  Measurers S. Chastel, M. Huber,
        Y. Ramanjooloo, R. Wainscoat, R. Weryk, K. Chambers, T. de Boer,
        L. Denneau, J. Fairlamb, H. Flewelling, C.-C. Lin, E. Magnier.  1.8-m
        Ritchey-Chretien + CCD.
    V06 Catalina Sky Survey-Kuiper.  Observer E. J. Christensen.  Measurers
        B. M. Africano, E. J. Christensen, G. A. Farneth, D. C. Fuls, A. R. Gibbs,
        A. D. Grauer, H. Groeller, R. A. Kowalski, S. M. Larson, G. J. Leonard,
        T. A. Pruyne, D. Rankin, R. L. Seaman, F. C. Shelly.  1.55-m reflector +
        CCD.
    
    Orbital elements:
    2019 LP1
    Epoch 2019 Apr. 27.0 TT = JDT 2458600.5                 MPC
    M 347.28464              (2000.0)            P               Q
    n   0.17895079     Peri.   55.33040     +0.59493418     +0.64410740
    a   3.1187481      Node   258.97022     -0.79837854     +0.54274929
    e   0.5651816      Incl.   29.33135     +0.09297862     +0.53902585
    P   5.51           H   20.4           G   0.15           U   8
    Residuals in seconds of arc
    190601 F51  0.2-  0.4+    190602 F51  0.0   0.2+    190604 V06  0.1+  0.0
    190601 F51  0.2+  0.2-    190603 568  0.0   0.1-    190604 V06  0.2-  0.1+
    190601 F51  0.1-  0.2-    190603 568  0.0   0.1-    190604 V06  0.1+  0.0
    190602 F51  0.0   0.1+    190603 568  0.0   0.1-    190604 V06  0.1-  0.0
    190602 F51  0.0   0.2-    190603 568  0.0   0.1-
    
    Ephemeris:
    2019 LP1                 a,e,i = 3.12, 0.57, 29                  q = 1.3561
    Date    TT    R. A. (2000) Decl.     Delta      r     Elong.  Phase     V
    2019 05 06    20 40 58.0 -10 39 58   1.0453  1.5157    95.1    41.5    23.0
    ...
    2019 05 21    21 14 38.9 +00 27 03   0.9109  1.4514    97.9    43.7    22.7
    ...
    2019 05 29    21 31 52.3 +07 15 58   0.8577  1.4228    98.7    44.8    22.5
    ...
    2019 06 04    21 44 26.6 +12 39 41   0.8267  1.4044    98.9    45.5    22.5
    2019 06 05    21 46 30.5 +13 34 36   0.8223  1.4016    98.9    45.6    22.4
    2019 06 06    21 48 34.0 +14 29 41   0.8181  1.3989    98.9    45.8    22.4
    ...
    2019 06 12    22 00 44.4 +20 02 19   0.7973  1.3842    98.9    46.5    22.4
    ...
    2019 06 20    22 16 32.0 +27 22 08   0.7807  1.3692    98.4    47.2    22.3
    ...
    2019 07 05    22 44 34.9 +40 04 58   0.7772  1.3563    97.3    48.0    22.3
    
    A. U. Tomatic                (C) Copyright 2019 MPC           M.P.E.C. 2019-L74
    

    Read MPEC 2019-L73 Read MPEC 2019-L75


    MPEC number:

    Enter an MPEC number in one of the following forms:

    • 1997-B01 (the full form)
    • J97B01 (the packed version of the full form)
    • B01 (the abbreviated form)